Location: Baix
(44.7118°N, 4.7648°E)
Time: 03:43:14
(UTC+00:00)

Cosmos 2219 - Pass Details

Date: 07 August 2020
Orbit: 834 x 860 km, 71.1° (Epoch: 25 September)

Event Time Altitude Azimuth Distance (km) Brightness Sun altitude
Exits shadow 00:45:07 45° 108° (ESE) 1,126 3.7 -27.5°
Maximum altitude 00:45:09 45° 108° (ESE) 1,126 3.7 -27.5°
Drops below altitude 10° 00:50:27 10° 37° (NE) 2,452 6.5 -27.3°
Sets 00:52:59 0° 31° (NNE) 3,390 7.5 -27.1°
